Location: ??????????
(48.4699°N, 37.9573°E)
Time: 13:14:54
(UTC+00:00)

CZ-2C R/B - Pass Details

Date: 20 January 2021
Orbit: 785 x 870 km, 98.2° (Epoch: 27 February)

Event Time Altitude Azimuth Distance (km) Brightness Sun altitude
Exits shadow 16:04:21 32° 99° (E) 1,449 3.4 -18.9°
Drops below altitude 10° 16:09:04 10° 157° (SSE) 2,504 5.0 -19.7°
Sets 16:11:43 0° 167° (SSE) 3,441 5.8 -20.1°
